QPF
0.07 0.08 0.08 0.07 0.07 0.07 0.07 0.06 0.06 0.06 0.05 0.05 0.04 0.03 0.02 0.02 0.02 0.01 0.01 0.02 0.03 0.03 0.03 0.03 0.03 0.03 0.04 0.04 0.06 0.06 0.06 0.06 0.07 0.07 0.08 0.08 0.08 0.10
0.08 0.08 0.08 0.09 0.09 0.09 0.08 0.08 0.07 0.07 0.06 0.05 0.05 0.03 0.02 0.02 0.01 0.01 0.01 0.02 0.02 0.03 0.03 0.03 0.03 0.04 0.04 0.05 0.06 0.08 0.10 0.09 0.08 0.07 0.07 0.09 0.09 0.10
0.06 0.07 0.08 0.08 0.09 0.11 0.11 0.09 0.08 0.08 0.07 0.05 0.04 0.04 0.03 0.03 0.02 0.02 0.02 0.02 0.01 0.02 0.02 0.03 0.03 0.04 0.04 0.05 0.06 0.08 0.10 0.11 0.12 0.11 0.09 0.08 0.09 0.10
0.05 0.06 0.07 0.07 0.09 0.10 0.12 0.12 0.10 0.08 0.07 0.05 0.04 0.03 0.03 0.02 0.02 0.02 0.02 0.02 0.02 0.03 0.03 0.03 0.03 0.04 0.04 0.05 0.05 0.06 0.08 0.10 0.11 0.12 0.10 0.07 0.07 0.07
0.03 0.05 0.06 0.08 0.08 0.09 0.10 0.11 0.11 0.09 0.08 0.06 0.04 0.04 0.04 0.03 0.03 0.03 0.03 0.02 0.02 0.02 0.03 0.03 0.04 0.05 0.05 0.05 0.05 0.05 0.06 0.07 0.08 0.09 0.09 0.07 0.07 0.07
0.03 0.04 0.05 0.06 0.07 0.07 0.08 0.08 0.09 0.09 0.09 0.08 0.06 0.04 0.04 0.04 0.04 0.04 0.04 0.03 0.02 0.02 0.03 0.03 0.03 0.04 0.05 0.05 0.04 0.04 0.05 0.06 0.07 0.08 0.08 0.08 0.09 0.09
0.02 0.03 0.03 0.04 0.06 0.07 0.07 0.07 0.07 0.08 0.08 0.08 0.07 0.06 0.04 0.04 0.03 0.03 0.03 0.03 0.03 0.03 0.03 0.02 0.03 0.03 0.03 0.04 0.04 0.04 0.04 0.05 0.06 0.07 0.08 0.09 0.10 0.10
0.02 0.03 0.03 0.04 0.05 0.07 0.07 0.07 0.07 0.08 0.08 0.08 0.08 0.07 0.05 0.05 0.04 0.04 0.04 0.05 0.05 0.03 0.03 0.03 0.02 0.02 0.03 0.03 0.04 0.04 0.04 0.04 0.06 0.07 0.08 0.08 0.10 0.10
0.03 0.03 0.04 0.04 0.05 0.05 0.05 0.05 0.05 0.06 0.07 0.07 0.07 0.06 0.04 0.04 0.05 0.06 0.06 0.06 0.06 0.05 0.04 0.04 0.03 0.02 0.02 0.03 0.04 0.04 0.05 0.05 0.05 0.07 0.08 0.08 0.08 0.09
0.05 0.05 0.04 0.04 0.04 0.05 0.04 0.05 0.05 0.04 0.04 0.04 0.04 0.04 0.04 0.04 0.05 0.06 0.06 0.06 0.05 0.04 0.05 0.06 0.04 0.03 0.03 0.03 0.04 0.04 0.06 0.07 0.07 0.07 0.08 0.08 0.08 0.08
0.05 0.05 0.05 0.04 0.05 0.06 0.06 0.06 0.05 0.04 0.04 0.04 0.05 0.05 0.05 0.05 0.06 0.07 0.07 0.06 0.06 0.05 0.05 0.06 0.05 0.03 0.03 0.04 0.05 0.05 0.06 0.07 0.07 0.07 0.07 0.07 0.07 0.07
0.07 0.06 0.06 0.06 0.06 0.06 0.06 0.06 0.05 0.04 0.04 0.04 0.04 0.05 0.06 0.06 0.07 0.08 0.08 0.08 0.08 0.06 0.05 0.05 0.05 0.05 0.05 0.04 0.03 0.04 0.04 0.06 0.07 0.06 0.06 0.06 0.06 0.06
0.06 0.09 0.09 0.09 0.07 0.06 0.05 0.05 0.05 0.05 0.04 0.05 0.06 0.08 0.09 0.09 0.09 0.10 0.10 0.11 0.10 0.08 0.06 0.06 0.07 0.07 0.07 0.05 0.04 0.03 0.03 0.03 0.04 0.05 0.06 0.06 0.06 0.05
0.06 0.07 0.09 0.10 0.09 0.08 0.06 0.05 0.06 0.06 0.06 0.07 0.08 0.09 0.09 0.09 0.08 0.08 0.09 0.09 0.09 0.08 0.08 0.07 0.08 0.08 0.08 0.07 0.06 0.04 0.04 0.04 0.05 0.05 0.06 0.07 0.06 0.05
0.07 0.08 0.09 0.09 0.08 0.08 0.09 0.08 0.07 0.06 0.06 0.07 0.08 0.07 0.07 0.07 0.07 0.08 0.08 0.08 0.07 0.07 0.07 0.08 0.08 0.09 0.10 0.10 0.08 0.06 0.05 0.05 0.05 0.05 0.06 0.06 0.06 0.06
0.09 0.10 0.10 0.09 0.08 0.08 0.09 0.09 0.09 0.08 0.08 0.08 0.08 0.07 0.07 0.07 0.07 0.07 0.07 0.07 0.07 0.07 0.07 0.07 0.07 0.09 0.10 0.10 0.08 0.07 0.05 0.05 0.04 0.04 0.05 0.06 0.05 0.05
0.10 0.10 0.11 0.11 0.09 0.08 0.09 0.08 0.08 0.09 0.11 0.11 0.10 0.10 0.09 0.08 0.08 0.08 0.07 0.07 0.07 0.07 0.06 0.07 0.07 0.08 0.09 0.10 0.10 0.08 0.06 0.05 0.04 0.04 0.05 0.06 0.05 0.05
0.09 0.08 0.08 0.08 0.08 0.08 0.09 0.10 0.09 0.09 0.09 0.08 0.08 0.09 0.09 0.10 0.09 0.09 0.09 0.08 0.08 0.07 0.07 0.07 0.08 0.10 0.10 0.10 0.09 0.07 0.06 0.06 0.05 0.05 0.06 0.05 0.04 0.03
0.07 0.06 0.06 0.06 0.07 0.07 0.08 0.08 0.09 0.08 0.09 0.09 0.08 0.08 0.08 0.09 0.09 0.09 0.08 0.08 0.07 0.07 0.08 0.08 0.08 0.09 0.09 0.08 0.07 0.05 0.05 0.05 0.05 0.05 0.05 0.05 0.04 0.03
0.04 0.04 0.05 0.06 0.06 0.06 0.07 0.07 0.07 0.08 0.08 0.08 0.08 0.08 0.08 0.08 0.08 0.08 0.08 0.07 0.06 0.06 0.07 0.07 0.07 0.07 0.08 0.07 0.06 0.05 0.05 0.05 0.05 0.05 0.04 0.04 0.04 0.04
0.05 0.05 0.04 0.05 0.06 0.06 0.07 0.07 0.07 0.07 0.07 0.07 0.07 0.07 0.07 0.08 0.08 0.07 0.06 0.05 0.05 0.05 0.05 0.06 0.06 0.07 0.07 0.07 0.06 0.06 0.06 0.06 0.05 0.05 0.04 0.05 0.05 0.05
0.05 0.05 0.05 0.05 0.06 0.06 0.06 0.06 0.07 0.06 0.07 0.06 0.06 0.07 0.07 0.07 0.07 0.06 0.04 0.04 0.04 0.04 0.04 0.05 0.05 0.05 0.05 0.05 0.05 0.05 0.06 0.07 0.07 0.06 0.05 0.05 0.06 0.05
0.05 0.05 0.05 0.05 0.05 0.05 0.05 0.05 0.06 0.06 0.06 0.06 0.06 0.06 0.06 0.07 0.06 0.06 0.04 0.04 0.03 0.03 0.03 0.04 0.04 0.03 0.03 0.03 0.04 0.04 0.05 0.06 0.06 0.06 0.07 0.05 0.04 0.04
MSLP
1004.37 1004.19 1003.97 1003.68 1003.32 1002.86 1002.33 1001.73 1001.11 1000.50 999.91 999.38 998.91 998.51 998.19 997.93 997.72 997.57 997.48 997.44 997.45 997.50 997.60 997.73 997.89 998.07 998.27 998.49 998.73 999.02 999.35 999.73 1000.15 1000.61 1001.09 1001.57 1002.04 1002.49
1003.83 1003.66 1003.46 1003.19 1002.84 1002.40 1001.89 1001.31 1000.69 1000.06 999.45 998.87 998.35 997.90 997.51 997.19 996.93 996.75 996.64 996.59 996.61 996.68 996.79 996.94 997.09 997.26 997.44 997.63 997.84 998.09 998.40 998.76 999.18 999.65 1000.15 1000.66 1001.17 1001.65
1003.28 1003.11 1002.92 1002.67 1002.34 1001.93 1001.45 1000.90 1000.30 999.69 999.07 998.48 997.92 997.41 996.97 996.59 996.28 996.05 995.91 995.84 995.85 995.92 996.04 996.17 996.32 996.47 996.61 996.76 996.93 997.13 997.40 997.74 998.16 998.64 999.17 999.73 1000.29 1000.84
1002.70 1002.53 1002.34 1002.10 1001.80 1001.43 1000.98 1000.48 999.92 999.34 998.74 998.15 997.57 997.04 996.55 996.12 995.76 995.49 995.31 995.21 995.20 995.25 995.35 995.47 995.59 995.70 995.80 995.90 996.01 996.16 996.38 996.69 997.10 997.59 998.16 998.77 999.41 1000.04
1002.12 1001.93 1001.73 1001.49 1001.21 1000.86 1000.46 1000.00 999.50 998.97 998.41 997.84 997.27 996.73 996.21 995.75 995.35 995.04 994.82 994.70 994.67 994.70 994.77 994.87 994.95 995.02 995.06 995.09 995.13 995.22 995.38 995.64 996.02 996.52 997.11 997.79 998.51 999.25
1001.54 1001.31 1001.08 1000.82 1000.54 1000.21 999.85 999.44 999.00 998.53 998.02 997.50 996.97 996.43 995.92 995.44 995.03 994.69 994.45 994.31 994.25 994.27 994.32 994.39 994.44 994.46 994.44 994.40 994.37 994.37 994.46 994.66 995.00 995.48 996.09 996.82 997.62 998.47
1000.99 1000.69 1000.41 1000.12 999.82 999.50 999.16 998.80 998.42 998.01 997.57 997.11 996.62 996.13 995.64 995.17 994.76 994.42 994.18 994.03 993.97 993.97 994.02 994.07 994.09 994.07 994.00 993.90 993.78 993.71 993.71 993.84 994.12 994.57 995.18 995.95 996.82 997.77
1000.49 1000.11 999.75 999.41 999.07 998.74 998.42 998.10 997.77 997.43 997.07 996.68 996.26 995.81 995.37 994.93 994.55 994.23 993.99 993.85 993.80 993.82 993.87 993.91 993.93 993.88 993.77 993.62 993.44 993.29 993.21 993.27 993.49 993.89 994.49 995.27 996.20 997.23
1000.05 999.58 999.14 998.72 998.34 997.99 997.68 997.39 997.12 996.85 996.57 996.25 995.90 995.53 995.13 994.74 994.39 994.10 993.90 993.78 993.76 993.79 993.86 993.93 993.95 993.90 993.78 993.60 993.38 993.18 993.05 993.04 993.20 993.57 994.14 994.92 995.87 996.95
999.68 999.11 998.58 998.09 997.67 997.30 997.00 996.75 996.53 996.33 996.12 995.89 995.62 995.31 994.97 994.64 994.33 994.08 993.90 993.82 993.82 993.89 993.99 994.09 994.14 994.12 994.02 993.84 993.62 993.41 993.25 993.21 993.34 993.68 994.22 994.99 995.94 997.04
999.35 998.69 998.08 997.53 997.07 996.69 996.41 996.21 996.05 995.93 995.80 995.65 995.46 995.22 994.95 994.66 994.39 994.17 994.03 993.97 994.00 994.10 994.24 994.37 994.47 994.50 994.45 994.32 994.14 993.96 993.82 993.80 993.93 994.25 994.78 995.53 996.46 997.54
999.01 998.27 997.60 997.01 996.53 996.18 995.94 995.79 995.72 995.68 995.64 995.57 995.46 995.29 995.07 994.83 994.60 994.41 994.28 994.24 994.29 994.41 994.58 994.76 994.91 995.00 995.03 994.98 994.88 994.77 994.71 994.73 994.90 995.24 995.77 996.50 997.40 998.44
998.60 997.81 997.10 996.50 996.04 995.73 995.56 995.49 995.51 995.57 995.63 995.66 995.62 995.52 995.36 995.16 994.96 994.78 994.66 994.63 994.69 994.82 995.01 995.23 995.43 995.60 995.71 995.77 995.78 995.79 995.82 995.94 996.17 996.56 997.11 997.82 998.68 999.65
998.08 997.25 996.54 995.97 995.56 995.32 995.24 995.28 995.41 995.58 995.75 995.87 995.92 995.89 995.79 995.63 995.45 995.29 995.18 995.14 995.19 995.33 995.53 995.78 996.03 996.27 996.47 996.64 996.77 996.91 997.07 997.29 997.62 998.06 998.63 999.34 1000.15 1001.04
997.43 996.60 995.92 995.40 995.07 994.93 994.96 995.12 995.37 995.66 995.94 996.17 996.31 996.36 996.32 996.21 996.06 995.92 995.81 995.77 995.82 995.95 996.16 996.42 996.71 997.01 997.29 997.55 997.81 998.06 998.34 998.68 999.09 999.59 1000.18 1000.87 1001.62 1002.41
996.70 995.90 995.27 994.84 994.60 994.58 994.73 995.01 995.39 995.79 996.18 996.51 996.75 996.87 996.90 996.85 996.75 996.63 996.55 996.52 996.56 996.69 996.90 997.17 997.48 997.81 998.15 998.49 998.83 999.18 999.56 999.98 1000.46 1001.00 1001.60 1002.25 1002.93 1003.63
996.01 995.25 994.70 994.35 994.23 994.31 994.58 994.97 995.46 995.97 996.45 996.87 997.19 997.40 997.50 997.52 997.48 997.41 997.36 997.36 997.42 997.55 997.76 998.02 998.34 998.69 999.06 999.44 999.83 1000.24 1000.68 1001.14 1001.65 1002.19 1002.77 1003.37 1003.97 1004.56
995.50 994.81 994.34 994.09 994.06 994.24 994.59 995.07 995.63 996.21 996.77 997.26 997.65 997.93 998.10 998.19 998.22 998.23 998.23 998.27 998.36 998.51 998.72 998.99 999.30 999.65 1000.01 1000.40 1000.80 1001.22 1001.66 1002.12 1002.61 1003.12 1003.64 1004.16 1004.67 1005.14
995.33 994.73 994.33 994.16 994.21 994.45 994.86 995.38 995.97 996.59 997.17 997.70 998.13 998.46 998.71 998.87 998.97 999.05 999.13 999.23 999.36 999.54 999.77 1000.03 1000.33 1000.65 1001.00 1001.35 1001.72 1002.11 1002.51 1002.92 1003.35 1003.79 1004.23 1004.66 1005.06 1005.43
995.63 995.11 994.78 994.67 994.76 995.03 995.44 995.96 996.54 997.13 997.70 998.22 998.67 999.03 999.32 999.54 999.72 999.87 1000.02 1000.18 1000.37 1000.59 1000.83 1001.10 1001.38 1001.68 1001.98 1002.29 1002.60 1002.92 1003.24 1003.58 1003.92 1004.27 1004.60 1004.93 1005.22 1005.49
996.44 995.99 995.72 995.64 995.73 995.99 996.36 996.83 997.35 997.88 998.39 998.87 999.28 999.64 999.95 1000.21 1000.44 1000.66 1000.87 1001.10 1001.33 1001.59 1001.85 1002.12 1002.39 1002.65 1002.91 1003.15 1003.40 1003.64 1003.88 1004.12 1004.37 1004.61 1004.84 1005.06 1005.26 1005.45
997.70 997.31 997.07 997.00 997.07 997.27 997.58 997.95 998.37 998.80 999.22 999.62 999.98 1000.30 1000.60 1000.87 1001.13 1001.38 1001.65 1001.92 1002.19 1002.47 1002.75 1003.02 1003.27 1003.50 1003.71 1003.90 1004.08 1004.25 1004.41 1004.56 1004.72 1004.87 1005.01 1005.14 1005.26 1005.38
999.27 998.92 998.70 998.61 998.63 998.76 998.97 999.23 999.53 999.84 1000.15 1000.45 1000.72 1000.99 1001.24 1001.50 1001.75 1002.02 1002.30 1002.59 1002.88 1003.17 1003.45 1003.71 1003.94 1004.15 1004.33 1004.47 1004.60 1004.71 1004.81 1004.90 1004.99 1005.07 1005.15 1005.22 1005.29 1005.36
Thickness
5565 5565 5566 5567 5567 5567 5566 5565 5563 5565 5571 5574 5573 5576 5576 5575 5575 5574 5574 5573 5572 5571 5570 5569 5568 5567 5566 5565 5565 5564 5563 5563 5563 5563 5563 5563 5564 5564
5554 5555 5557 5558 5558 5557 5558 5557 5555 5555 5559 5565 5563 5564 5564 5564 5564 5563 5563 5563 5562 5561 5561 5560 5559 5558 5557 5557 5556 5556 5555 5555 5555 5556 5555 5557 5557 5556
5544 5545 5547 5548 5549 5549 5548 5548 5547 5546 5548 5554 5554 5554 5553 5553 5553 5552 5552 5552 5551 5551 5551 5550 5550 5549 5548 5548 5548 5547 5547 5547 5547 5547 5548 5549 5549 5548
5534 5535 5537 5537 5538 5538 5538 5539 5539 5538 5537 5540 5543 5542 5542 5542 5542 5542 5542 5541 5540 5541 5540 5540 5540 5539 5539 5539 5538 5538 5538 5538 5538 5539 5539 5540 5539 5538
5524 5525 5526 5526 5527 5528 5528 5528 5528 5528 5527 5527 5530 5531 5530 5531 5530 5530 5530 5529 5529 5530 5530 5530 5530 5530 5530 5530 5529 5529 5529 5528 5529 5529 5530 5530 5529 5529
5514 5514 5515 5516 5517 5517 5518 5518 5518 5517 5516 5516 5518 5519 5519 5519 5518 5518 5518 5518 5518 5519 5519 5519 5520 5520 5520 5520 5520 5520 5519 5518 5518 5519 5519 5519 5519 5518
5503 5504 5504 5505 5506 5506 5508 5509 5508 5507 5507 5507 5507 5508 5508 5507 5508 5508 5508 5508 5508 5508 5508 5508 5508 5509 5510 5510 5510 5510 5510 5509 5509 5509 5510 5509 5509 5507
5493 5493 5494 5494 5495 5497 5498 5498 5498 5498 5498 5498 5498 5498 5500 5499 5498 5498 5497 5496 5498 5499 5497 5498 5498 5499 5500 5500 5500 5501 5501 5500 5500 5500 5500 5499 5498 5497
5481 5481 5483 5485 5485 5486 5487 5488 5488 5488 5488 5489 5489 5490 5489 5490 5488 5487 5488 5488 5489 5488 5486 5487 5488 5489 5490 5490 5491 5491 5491 5490 5490 5490 5489 5489 5488 5486
5470 5471 5472 5473 5474 5475 5477 5477 5477 5478 5477 5477 5479 5480 5480 5480 5479 5479 5479 5477 5476 5476 5476 5476 5477 5477 5478 5479 5481 5481 5481 5481 5480 5479 5479 5478 5477 5475
5459 5459 5460 5462 5464 5465 5466 5467 5467 5468 5467 5467 5468 5469 5470 5470 5469 5467 5466 5465 5465 5466 5466 5465 5465 5465 5466 5467 5470 5471 5471 5471 5470 5470 5469 5467 5465 5463
5448 5449 5450 5452 5454 5455 5456 5457 5458 5459 5457 5456 5456 5457 5458 5459 5459 5459 5458 5458 5456 5457 5458 5456 5455 5453 5454 5456 5457 5458 5459 5459 5459 5458 5457 5456 5454 5451
5437 5439 5440 5442 5444 5446 5447 5448 5450 5449 5448 5447 5447 5447 5447 5447 5448 5448 5449 5450 5449 5448 5449 5447 5445 5444 5444 5443 5444 5446 5447 5447 5447 5446 5445 5444 5443 5441
5426 5428 5430 5432 5435 5437 5438 5440 5440 5440 5439 5438 5438 5438 5437 5437 5437 5438 5438 5438 5440 5441 5441 5440 5438 5437 5434 5432 5432 5433 5435 5435 5435 5435 5434 5432 5430 5429
5415 5418 5420 5422 5424 5426 5428 5430 5430 5430 5430 5430 5430 5429 5428 5428 5427 5427 5427 5428 5429 5430 5431 5431 5430 5429 5427 5424 5422 5422 5422 5423 5423 5422 5422 5421 5419 5417
5404 5406 5409 5410 5412 5415 5417 5419 5420 5421 5422 5421 5420 5419 5418 5418 5418 5418 5418 5419 5418 5418 5417 5419 5420 5420 5417 5415 5414 5411 5411 5411 5411 5411 5411 5410 5409 5408
5394 5396 5398 5400 5401 5403 5405 5407 5410 5411 5412 5411 5411 5410 5409 5409 5409 5409 5409 5409 5408 5407 5406 5406 5407 5408 5407 5404 5402 5402 5402 5402 5401 5400 5400 5399 5398 5398
5386 5387 5388 5390 5391 5393 5395 5396 5398 5401 5402 5402 5402 5402 5401 5401 5400 5399 5399 5399 5399 5398 5397 5396 5396 5396 5394 5392 5391 5390 5391 5393 5392 5390 5389 5388 5388 5388
5377 5377 5378 5380 5381 5383 5384 5386 5388 5390 5392 5393 5393 5393 5393 5393 5392 5391 5390 5389 5389 5388 5387 5386 5386 5386 5385 5381 5379 5381 5381 5381 5381 5380 5379 5378 5378 5379
5368 5368 5370 5371 5372 5373 5375 5376 5378 5381 5383 5385 5385 5385 5385 5385 5384 5382 5381 5380 5380 5379 5377 5376 5375 5376 5376 5373 5371 5370 5372 5372 5371 5370 5369 5368 5368 5369
5360 5361 5362 5363 5364 5366 5367 5369 5371 5373 5374 5376 5376 5376 5376 5376 5375 5374 5373 5373 5372 5370 5368 5366 5365 5366 5365 5365 5363 5361 5362 5363 5363 5362 5361 5360 5359 5359
5351 5353 5354 5355 5357 5359 5360 5361 5363 5364 5366 5367 5368 5368 5368 5368 5367 5366 5365 5364 5363 5361 5359 5357 5357 5358 5358 5357 5354 5353 5353 5353 5354 5354 5353 5353 5351 5351
5343 5346 5347 5349 5350 5352 5354 5355 5356 5357 5358 5359 5360 5360 5361 5360 5359 5358 5357 5356 5354 5352 5351 5350 5350 5349 5348 5347 5345 5344 5344 5344 5344 5345 5345 5346 5346 5346